Location: Lusk
(37.4828°N, 88.4742°W)
Time: 15:10:33
(UTC+00:00)

Daily predictions for brighter satellites

Satellite Brightness Start Highest point End
(mag) Time Altitude Azimuth Time Altitude Azimuth Time Altitude Azimuth
Cosmos 1300 3.8 12:00:41 10° SSE 12:04:20 48° E 12:08:01 10° NNE
Cosmos 2228 4.2 12:01:03 10° SSE 12:05:06 45° E 12:09:10 10° NNE
Cosmos 1814 Rocket 4.1 12:00:51 10° SW 12:05:49 49° WNW 12:10:48 10° N
Cosmos 1626 Rocket 3.6 12:01:36 10° NNW 12:06:01 61° W 12:10:23 10° S
Cosmos 1937 Rocket 3.8 12:02:17 10° NNW 12:07:16 44° WSW 12:12:10 10° S
Cosmos 372 Rocket 4.0 12:03:19 10° NNW 12:08:36 88° WSW 12:13:49 10° SSE
SL-19 R/B 4.0 12:05:28 10° NNE 12:09:23 84° WNW 12:12:46 10° SSW
GEOS 3 Rocket 3.8 12:04:57 10° SSE 12:10:10 57° WSW 12:15:30 10° NW
Cosmos 1455 Rocket 4.5 12:07:37 10° WSW 12:10:22 16° WNW 12:13:08 10° NNW
USA 276 4.5 12:09:50 10° WSW 12:10:27 10° SW 12:11:05 10° SW
Envisat 3.1 12:07:17 10° N 12:12:11 51° WNW 12:17:05 10° SSW
ERS-2 3.4 12:11:05 10° SSW 12:13:53 21° W 12:16:23 12° NW
Cosmos 1689 Rocket 3.2 12:14:29 10° SSW 12:16:54 23° W 12:19:12 11° NW
ATLAS CENTAUR R/B 1.0 12:14:00 10° SW 12:17:42 67° WNW 12:21:22 10° NNE
NOAA 6 4.0 12:13:13 10° N 12:18:22 64° WNW 12:23:29 10° SSW
Cosmos 1953 3.6 12:16:13 10° WSW 12:19:07 19° WNW 12:22:00 10° NNW
H-2A R/B 2.6 12:16:17 10° N 12:20:47 78° WNW 12:25:16 10° SSW
COSMOS 2428 4.4 12:20:32 11° WNW 12:22:06 12° NW 12:24:12 10° NNW
BREEZE M DEB (TANK) 2.0 12:20:56 14° WNW 12:22:27 33° SW 12:24:46 10° SSE
Cosmos 1908 4.2 12:19:32 10° SW 12:22:42 25° WNW 12:25:54 10° NNW
CORIOLIS 4.4 12:18:25 10° NNE 12:23:47 78° ESE 12:29:07 10° S
Cosmos 44 Rocket 3.9 12:22:48 10° NW 12:27:46 44° WSW 12:32:38 10° S
Cosmos 1758 Rocket 3.6 12:23:51 10° N 12:28:22 89° ESE 12:32:49 10° S
NOAA 11 4.3 12:26:51 10° NNE 12:32:21 88° E 12:37:47 10° SSW
Okean O Rocket 1.6 12:29:56 10° N 12:34:18 82° WNW 12:38:38 10° SSW
USA 307 2.9 12:30:19 10° WSW 12:34:30 62° NW 12:38:41 10° NE
Cosmos 1315 Rocket 2.7 12:35:15 10° SSW 12:39:08 71° W 12:43:03 10° N
Cosmos 1092 Rocket 4.2 12:33:37 10° NNW 12:39:30 49° W 12:45:23 10° SSW
CZ-2C R/B 1.6 12:35:35 10° WSW 12:39:36 59° S 12:43:21 10° E
Cosmos 1603 3.9 23:21:26 10° NNW 23:27:10 84° WSW 23:32:54 10° SSE
Okean O Rocket 1.6 23:24:01 10° SSE 23:28:25 66° ENE 23:32:49 10° N
Cosmos 1455 3.9 23:29:10 10° NE 23:31:16 14° ENE 23:33:23 10° ESE
ATLAS 3B R/B 3.4 23:27:05 10° NW 23:34:04 65° WSW 23:41:17 10° SSE
BREEZE-M DEB (TANK) 2.2 23:33:34 10° WNW 23:36:24 74° SSW 23:40:16 10° SE
Cosmos 1300 2.8 23:32:38 10° N 23:36:27 82° W 23:40:15 10° S
FengYun 1-2 T 4.2 23:34:02 10° SSE 23:39:34 82° ENE 23:45:11 10° N
YAOGAN 1 4.0 23:39:38 10° ESE 23:42:29 17° ENE 23:45:20 10° NNE
Cosmos 1892 Rocket 3.5 23:38:30 10° S 23:42:49 75° E 23:47:10 10° N
Cosmos 2279 Rocket 4.0 23:37:27 10° N 23:43:45 78° E 23:49:59 10° S
ERS-2 3.1 23:40:54 10° NE 23:44:03 27° E 23:47:09 10° SSE
CZ-4B R/B 1.4 23:40:51 10° NNE 23:44:10 58° E 23:47:22 10° S
Cosmos 1606 Rocket 3.6 23:40:13 10° N 23:44:37 88° W 23:49:03 10° S
CORIOLIS 4.4 23:39:36 10° S 23:45:00 77° WSW 23:50:25 10° NNW
H-2A R/B 3.0 23:40:59 10° N 23:45:17 50° WNW 23:49:27 10° SSW
BREEZE-M DEB (TANK) 3.8 23:43:16 10° WNW 23:46:04 61° SSW 23:54:41 10° SE
SMAP 4.1 23:44:55 10° S 23:49:26 52° W 23:53:59 10° NNW
Cosmos 2263 Rocket 4.2 23:45:09 10° WSW 23:49:51 26° WNW 23:54:34 10° N
Cosmos 2228 3.5 23:46:45 10° NNW 23:50:59 65° W 23:55:14 10° S
